This demonstration page uses our WeatherBlox Daily Observations layout. Learn more.

Left ArrowRight Arrow

Hourly Observations for December 10, 2015

Temp ( °F °C ) Dew Point ( °F °C ) Humidity (%) Winds ( mph kmh ) Pressure ( in mb ) Visibility ( mi km ) Precip ( " mm )
12:53 am 00:53 Cloudy 53 11.7 48 8.9 83 83 Calm 30.00 1016 10 16 0.00 0.00
1:53 am 01:53 Cloudy 51 10.6 47 8.3 86 86 Calm 30.00 1016 10 16 0.00 0.00
2:53 am 02:53 Cloudy 53 11.7 48 8.9 83 83 Calm 29.98 1015 10 16 0.00 0.00
3:53 am 03:53 Mostly Cloudy 51 10.6 48 8.9 89 89 Calm 29.97 1015 10 16 0.00 0.00
4:53 am 04:53 Cloudy 51 10.6 48 8.9 89 89 Calm 29.97 1015 9 14 0.00 0.00
5:53 am 05:53 Partly Cloudy 51 10.6 48 8.9 89 89 Calm 29.99 1016 10 16 0.00 0.00
6:03 am 06:03 Mostly Cloudy 52 11 48 9 88 88 Calm 30.03 1017 10 16 0.00 0.00
6:28 am 06:28 Partly Cloudy 52 11 48 9 88 88 Calm 30.03 1017 10 16 0.00 0.00
6:53 am 06:53 Clear 51 10.6 48 8.9 89 89 Calm 30.01 1016 10 16 0.00 0.00
7:53 am 07:53 Sunny 50 10 47 8.3 89 89 Calm 30.03 1017 10 16 0.00 0.00
8:53 am 08:53 Mostly Sunny 53 11.7 49 9.4 86 86 WSW 3 6 30.04 1017 7 11 0.00 0.00
9:15 am 09:15 Mostly Cloudy 54 12.2 50 10 87 87 SSW 5 7 30.09 1019 8 13 0.00 0.00
9:24 am 09:24 Mostly Cloudy 54 12 50 10 88 88 SSW 8 13 30.09 1019 8 13 0.00 0.00
9:53 am 09:53 Cloudy with Mist and Fog 54 12.2 51 10.6 90 90 SSW 7 11 30.06 1018 4 6 0.00 0.00
10:00 am 10:00 Cloudy with Mist and Fog 54 12 52 11 94 94 SSW 7 11 30.09 1019 5 8 0.00 0.00
10:33 am 10:33 Cloudy with Mist and Fog 55 12.8 52 11.1 90 90 SW 6 9 30.06 1018 2 3 0.00 0.00
10:43 am 10:43 Cloudy with Mist and Fog 56 13.3 53 11.7 90 90 SW 5 7 30.06 1018 4 6 0.00 0.00
10:53 am 10:53 Cloudy with Mist and Fog 56 13.3 53 11.7 90 90 SW 5 7 30.06 1018 5 8 0.00 0.00
11:06 am 11:06 Cloudy 55 13 54 12 94 94 WSW 5 7 30.06 1018 8 13 0.00 0.00
11:53 am 11:53 Cloudy 58 14.4 53 11.7 84 84 W 5 7 30.04 1017 10 16 0.00 0.00
12:48 pm 12:48 Cloudy 61 16 55 13 83 83 SSW 7 11 30.03 1017 10 16 0.00 0.00
12:53 pm 12:53 Cloudy 60 15.6 54 12.2 80 80 SSW 6 9 30.01 1016 10 16 0.00 0.00
1:53 pm 13:53 Cloudy 61 16.1 55 12.8 81 81 SW 6 9 29.99 1016 10 16 0.00 0.00
2:20 pm 14:20 Cloudy 63 17 55 13 77 77 SW 7 11 30.00 1016 10 16 0.00 0.00
2:53 pm 14:53 Cloudy 63 17.2 55 12.8 76 76 SW 8 13 29.96 1015 10 16 0.00 0.00
3:33 pm 15:33 Partly Cloudy 64 17.8 54 12.2 70 70 VRB 3 6 29.97 1015 10 16 0.00 0.00
3:53 pm 15:53 Mostly Sunny 65 18.3 54 12.2 68 68 VRB 6 9 29.96 1015 10 16 0.00 0.00
4:53 pm 16:53 Sunny 64 17.8 54 12.2 70 70 SSW 5 7 29.96 1015 10 16 0.00 0.00
5:53 pm 17:53 Clear 61 16.1 54 12.2 78 78 Calm 29.96 1014 10 16 0.00 0.00
6:53 pm 18:53 Clear 57 13.9 53 11.7 87 87 Calm 29.96 1014 10 16 0.00 0.00
7:53 pm 19:53 Partly Cloudy 55 12.8 53 11.7 93 93 Calm 29.98 1015 8 13 0.00 0.00
8:53 pm 20:53 Clear 53 11.7 50 10 89 89 Calm 29.98 1015 7 11 0.00 0.00
9:53 pm 21:53 Partly Cloudy 54 12.2 51 10.6 90 90 Calm 29.98 1015 7 11 0.00 0.00
10:40 pm 22:40 Mostly Clear with Mist and Fog 52 11 48 9 88 88 Calm 30.00 1016 2 3 0.00 0.00
10:53 pm 22:53 Mostly Clear 51 10.6 48 8.9 89 89 Calm 29.98 1015 7 11 0.00 0.00
11:53 pm 23:53 Clear with Mist and Fog 51 10.6 48 8.9 89 89 Calm 29.98 1015 6 10 0.00 0.00

Powered by AerisWeather